Weather History for KSPG - June, 2013

Change the Weather History Date:

Saturday, June 1, 2013

  Actual Average (WUND) Record (WUND)
Temperature  
Mean Temperature 82 °F -  
Max Temperature 89 °F - - (-1)
Min Temperature 75 °F - - (-1)
Cooling Degree Days 16    
Growing Degree Days 32 (Base 50)    
Moisture  
Dew Point 74 °F    
Average Humidity 85    
Maximum Humidity 94    
Minimum Humidity 63    
Precipitation  
Precipitation 1.02 in - - ()
Sea Level Pressure  
Sea Level Pressure 29.99 in    
Wind  
Wind Speed 11 mph (SE)    
Max Wind Speed 17 mph    
Max Gust Speed 23 mph    
Visibility 8 miles    
Events Rain , Thunderstorm    
Averages and records for this station are not official NWS values.
T = Trace of Precipitation, MM = Missing Value Source: NWS Daily Summary

Daily Weather History Graph

Daily Weather History Graph

Search for Another Location

Airport or City:

Trip Planner

Search our weather history database for the weather conditions in past years. The results will help you decide how hot, cold, wet, or windy it might be!

Date:

Astronomy

Jun. 01, 2013 Rise Set
Actual Time 6:34 AM EDT 8:22 PM EDT
Civil Twilight 6:08 AM EDT 8:48 PM EDT
Nautical Twilight 5:36 AM EDT 9:20 PM EDT
Astronomical Twilight 5:03 AM EDT 9:53 PM EDT
Moon 1:57 AM EDT (6/1) 2:20 PM EDT (6/1)
Length of Visible Light 14h 39m
Length of Day
13h 47m
Last Quarter, 41% of the Moon is Illuminated
Jun 1
Last Quarter
Jun 8
New
Jun 16
First Quarter
Jun 23
Full
Jun 30
Last Quarter

Hourly Weather History & Observations

Time (EDT) Temp. Heat Index Dew Point Humidity Pressure Visibility Wind Dir Wind Speed Gust Speed Precip Events Conditions
12:53 AM 79.0 °F - 72.0 °F 79% 30.04 in 10.0 mi ESE 17.3 mph - N/A   Clear
1:53 AM 78.1 °F - 72.0 °F 81% 30.02 in 10.0 mi ESE 13.8 mph - N/A   Clear
2:53 AM 78.1 °F - 72.0 °F 81% 30.00 in 10.0 mi ESE 13.8 mph - N/A   Scattered Clouds
3:17 AM 78.1 °F - 72.0 °F 81% 29.99 in 10.0 mi ESE 13.8 mph - N/A   Mostly Cloudy
3:53 AM 77.0 °F - 72.0 °F 84% 29.99 in 10.0 mi ESE 12.7 mph - N/A   Mostly Cloudy
4:53 AM 77.0 °F - 73.0 °F 88% 29.98 in 10.0 mi ESE 15.0 mph - N/A   Clear
5:53 AM 77.0 °F - 72.0 °F 84% 30.00 in 10.0 mi ESE 13.8 mph - N/A   Mostly Cloudy
6:53 AM 77.0 °F - 73.0 °F 88% 30.01 in 10.0 mi East 15.0 mph - N/A   Partly Cloudy
7:53 AM 77.0 °F - 73.9 °F 90% 30.02 in 2.5 mi East 12.7 mph - 0.00 in Rain Light Rain
7:59 AM 77.0 °F - 73.9 °F 90% 30.02 in 3.0 mi ESE 12.7 mph - 0.00 in Rain Light Rain
8:06 AM 77.0 °F - 73.9 °F 90% 30.02 in 5.0 mi ESE 13.8 mph - 0.00 in   Overcast
8:48 AM 78.8 °F - 73.4 °F 83% 30.03 in 10.0 mi ESE 11.5 mph - 0.00 in   Overcast
8:53 AM 78.1 °F - 73.9 °F 87% 30.03 in 10.0 mi ESE 12.7 mph - 0.00 in   Mostly Cloudy
8:58 AM 79.0 °F - 73.9 °F 84% 30.03 in 10.0 mi ESE 12.7 mph - N/A   Scattered Clouds
9:30 AM 80.1 °F 84.5 °F 73.9 °F 81% 30.03 in 10.0 mi ESE 13.8 mph - N/A   Mostly Cloudy
9:53 AM 81.0 °F 86.2 °F 73.9 °F 79% 30.03 in 10.0 mi ESE 11.5 mph - N/A   Mostly Cloudy
10:04 AM 81.0 °F 86.2 °F 73.9 °F 79% 30.03 in 10.0 mi ESE 13.8 mph - N/A   Scattered Clouds
10:53 AM 82.9 °F 89.4 °F 73.9 °F 74% 30.02 in 10.0 mi SE 9.2 mph - N/A   Mostly Cloudy
11:53 AM 84.0 °F 91.2 °F 73.9 °F 72% 30.02 in 10.0 mi ESE 6.9 mph - N/A   Overcast
12:53 PM 82.9 °F 90.2 °F 75.0 °F 77% 30.01 in 10.0 mi ENE 9.2 mph - N/A   Overcast
1:53 PM 84.0 °F 92.6 °F 75.9 °F 76% 30.00 in 10.0 mi East 6.9 mph - N/A   Overcast
2:53 PM 88.0 °F 96.5 °F 73.9 °F 63% 29.97 in 10.0 mi ENE 3.5 mph - 0.00 in   Mostly Cloudy
3:53 PM 86.0 °F 95.1 °F 75.0 °F 70% 29.95 in 10.0 mi West 10.4 mph - N/A   Mostly Cloudy
4:31 PM 84.9 °F 93.3 °F 75.0 °F 72% 29.94 in 10.0 mi West 11.5 mph - N/A   Mostly Cloudy
4:53 PM 84.0 °F 91.9 °F 75.0 °F 74% 29.94 in 10.0 mi West 11.5 mph - N/A   Mostly Cloudy
5:28 PM 84.0 °F 91.9 °F 75.0 °F 74% 29.94 in 10.0 mi West 10.4 mph - N/A Thunderstorm Thunderstorm
5:53 PM 80.1 °F 85.1 °F 75.0 °F 85% 29.97 in 7.0 mi East 12.7 mph 21.9 mph N/A Thunderstorm Thunderstorm
5:57 PM 79.0 °F - 73.9 °F 84% 29.97 in 1.5 mi ENE 17.3 mph 23.0 mph 0.07 in Rain , Thunderstorm Light Thunderstorms and Rain
6:00 PM 79.0 °F - 73.0 °F 82% 29.97 in 0.8 mi NE 13.8 mph 23.0 mph 0.18 in Rain , Thunderstorm Heavy Thunderstorms and Rain
6:24 PM 77.0 °F - 73.9 °F 90% 29.97 in 1.8 mi NW 5.8 mph - 0.60 in Rain , Thunderstorm Thunderstorms and Rain
6:26 PM 77.0 °F - 73.9 °F 90% 29.97 in 2.0 mi NNW 4.6 mph - 0.60 in Rain , Thunderstorm Thunderstorms and Rain
6:36 PM 77.0 °F - 73.9 °F 90% 29.97 in 5.0 mi West 4.6 mph - 0.61 in Rain , Thunderstorm Light Thunderstorms and Rain
6:44 PM 77.0 °F - 73.9 °F 90% 29.97 in 10.0 mi NNE 3.5 mph - 0.61 in Rain , Thunderstorm Light Rain
6:51 PM 78.8 °F - 73.4 °F 83% 29.98 in 10.0 mi Calm Calm - 0.61 in Rain , Thunderstorm Light Thunderstorms and Rain
6:53 PM 78.1 °F - 73.9 °F 87% 29.98 in 10.0 mi Calm Calm - 0.61 in Rain , Thunderstorm Light Thunderstorms and Rain
7:21 PM 78.1 °F - 75.0 °F 90% 29.97 in 10.0 mi South 8.1 mph - 0.00 in Rain , Thunderstorm Light Rain
7:28 PM 78.1 °F - 75.0 °F 90% 29.97 in 10.0 mi SW 6.9 mph - 0.00 in Thunderstorm Thunderstorm
7:43 PM 78.1 °F - 75.0 °F 90% 29.97 in 10.0 mi SSW 4.6 mph - 0.00 in   Overcast
7:53 PM 77.0 °F - 73.9 °F 90% 29.98 in 10.0 mi SSW 5.8 mph - 0.00 in   Overcast
8:01 PM 77.0 °F - 75.0 °F 94% 29.98 in 10.0 mi South 5.8 mph - N/A   Overcast
8:19 PM 77.0 °F - 75.0 °F 94% 29.98 in 4.0 mi South 8.1 mph - 0.03 in Rain , Thunderstorm Light Rain
8:29 PM 77.0 °F - 73.9 °F 90% 29.98 in 2.5 mi SSE 8.1 mph - 0.09 in Rain , Thunderstorm Rain
8:39 PM 77.0 °F - 73.9 °F 90% 29.98 in 5.0 mi South 6.9 mph - 0.10 in Rain , Thunderstorm Light Rain
8:46 PM 75.9 °F - 73.9 °F 94% 29.98 in 8.0 mi South 6.9 mph - 0.11 in Rain Light Rain
8:53 PM 77.0 °F - 73.9 °F 90% 29.99 in 10.0 mi South 4.6 mph - 0.11 in Rain Light Rain
9:10 PM 77.0 °F - 73.9 °F 90% 29.99 in 7.0 mi South 4.6 mph - 0.02 in Rain , Thunderstorm Thunderstorms and Rain
9:19 PM 77.0 °F - 73.9 °F 90% 29.99 in 6.0 mi SE 8.1 mph - 0.03 in Rain , Thunderstorm Light Thunderstorms and Rain
9:24 PM 77.0 °F - 73.9 °F 90% 30.00 in 4.0 mi SE 8.1 mph - 0.06 in Rain , Thunderstorm Rain
9:31 PM 77.0 °F - 73.9 °F 90% 30.00 in 2.5 mi ESE 6.9 mph - 0.14 in Rain , Thunderstorm Heavy Rain
9:34 PM 77.0 °F - 73.9 °F 90% 30.01 in 2.5 mi East 6.9 mph - 0.15 in Rain Rain
9:42 PM 77.0 °F - 73.9 °F 90% 30.02 in 4.0 mi ESE 8.1 mph - 0.18 in Rain Rain
9:53 PM 77.0 °F - 75.0 °F 94% 30.02 in 5.0 mi ESE 10.4 mph - 0.20 in Rain , Thunderstorm Rain
10:00 PM 77.0 °F - 73.9 °F 90% 30.02 in 6.0 mi SE 9.2 mph - 0.01 in Rain , Thunderstorm Light Rain
10:06 PM 77.0 °F - 75.0 °F 94% 30.00 in 7.0 mi South 10.4 mph - 0.01 in Rain , Thunderstorm Light Rain
10:13 PM 77.0 °F - 75.0 °F 94% 30.00 in 8.0 mi South 13.8 mph - 0.02 in Rain Light Rain
10:53 PM 75.9 °F - 73.9 °F 94% 29.99 in 8.0 mi South 12.7 mph - 0.07 in Rain Light Rain
11:53 PM 77.0 °F - 73.9 °F 90% 29.97 in 10.0 mi South 6.9 mph - 0.03 in   Partly Cloudy